Starlink 32406

operational
NORAD ID: 61545 Int'l Des: 2024-184 Owner: SPXS Country: US Constellation: starlink
LEOCIRCULAR

Über Starlink 32406

Beschreibung wird geladen...

Live-Position

3D-Globus wird geladen...

Nächste Überflüge

Höhenverlauf

Altitude vs Time

uPlot chart will show altitude changes over time

Zweizeiliger Elementsatz

1 61545U 24184P 25259.87326122 -.00001882 00000-0 -51462-4 0 9997
2 61545 53.1587 101.3916 0001192 94.7106 265.4031 15.30184280 51899
Epoch: 16. Sept. 2025 • Age: 28 hours

Aktueller Status

Höhe 478.1 km
Geschwindigkeit 7.63 km/s
Subsatellitenpunkt 39.25°N, 115.15°E
Startdatum 15. Okt. 2024
Alter 0.9 years
Typ internet

Technische Details

Klassifizierung Payload
Masse 730.00 kg
Trockenmasse 700.00 kg
Gesamtmasse 730.00 kg
Länge 0.30 m
Durchmesser 4.10 m
Spannweite 29.00 m
Form Box + pan
Hersteller SPXS
Bus-Typ Starlink V2M
Phasenstatus In Orbit
Besitzer/Staat SPXS/US

Große Konstellationen

Loading constellations...